Weather in Windsor

Canada     42°19′10″N   83°02′30″W
temp.,
°C
wind,
m/s
gust,
m/s
humid.,
%
clouds,
%
prec.,
mm/h
press.,
hPa
HPBL,
m
1 july, fri
fri123:00+26ssw51254100 0.0 1015486
02:00+23sw41362100 0.0 1014396
05:00+22sw4136799 0.0 1013433
08:00+23wsw4127156 0.0 1014495
11:00+28wsw4648100 0.0 1013975
14:00+27wsw5956100 0.1 10131045
17:00+29wsw6953100 0.0 10121418
20:00+24wsw51080100 1.1 1012733
2 july, sat
sat223:00+20w488096 1.1 1013342
02:00+18wnw36790 1.1 1014202
05:00+17wnw25710 0.0 1014132
08:00+19w37670 0.0 1015295
11:00+25wnw58474 0.0 10161444
14:00+28wnw562799 0.0 10152235
17:00+28wnw6630100 0.0 10152332
20:00+25wnw4639100 0.0 10161186
3 july, sun
sun323:00+22nw4737100 0.0 1018595
02:00+19nne374390 0.0 1019373
05:00+16ne2560100 0.0 1021225
08:00+17ene35551 0.0 1022348
11:00+22e33404 0.0 1022839
14:00+26e22300 0.0 10211480
17:00+26s32350 0.0 10201486
20:00+22s34502 0.0 1020381
4 july, mon
mon423:00+19sse235036 0.0 102190
02:00+18sse26470 0.0 1020127
05:00+17s12600 0.0 102018
08:00+20ssw24560 0.0 1020189
11:00+25ssw3439100 0.0 1018693
14:00+28ssw4546100 0.0 10171165
17:00+28sw4551100 0.0 10161166
20:00+26s2364100 0.0 1015390
5 july, tue
tue523:00+22w3688100 2.9 1016250
02:00+20nne1297100 10.9 1012157
05:00+20ese2398100 29.2 1012242
08:00+20ene1196100 31.9 1013149
11:00+21ne1392100 0.2 1013302
14:00+28nne2458100 0.2 10121410
17:00+28ne455863 0.0 10121128
20:00+24ne46783 0.1 1013417